CET,Max TemperatureF,Mean TemperatureF,Min TemperatureF,Max Dew PointF,MeanDew PointF,Min DewpointF,Max Humidity, Mean Humidity, Min Humidity, Max Sea Level PressureIn, Mean Sea Level PressureIn, Min Sea Level PressureIn, Max VisibilityMiles, Mean VisibilityMiles, Min VisibilityMiles, Max Wind SpeedMPH, Mean Wind SpeedMPH, Max Gust SpeedMPH,PrecipitationIn, CloudCover, Events, WindDirDegrees
2011-11-1,68,59,50,55,52,48,100,81,49,30.09,30.07,30.06,6,6,5,7,3,,0.00,2,,33
2011-11-2,69,58,48,55,52,48,100,86,60,30.09,30.06,30.04,6,6,6,6,3,,0.00,2,,60
2011-11-3,69,60,50,59,54,50,100,85,56,30.04,30.02,30.01,6,6,6,10,3,,0.00,3,,89
2011-11-4,69,63,57,61,56,48,100,77,59,30.01,29.97,29.95,6,6,6,20,7,30,0.00,3,,144
2011-11-5,69,66,62,61,56,48,88,73,56,29.95,29.87,29.74,6,6,4,23,14,40,0.00,4,Rain,128
2011-11-6,68,60,51,59,53,48,100,84,64,29.92,29.84,29.74,6,6,2,31,11,45,0.00,4,Rain-Thunderstorm,114
2011-11-7,68,60,53,61,55,50,100,85,60,30.12,30.03,29.95,6,6,5,22,12,28,0.00,4,Rain-Thunderstorm,138
2011-11-8,68,60,53,57,54,50,100,80,60,30.15,30.11,30.09,6,6,2,20,12,29,0.00,2,Rain-Thunderstorm,123
2011-11-9,68,59,50,57,52,48,100,84,52,30.12,30.11,30.06,6,6,6,6,3,,0.00,1,,32
2011-11-10,68,57,46,57,50,46,100,85,56,30.09,30.04,30.01,6,6,6,5,3,,0.00,1,,49
2011-11-11,66,56,46,55,51,46,100,88,56,30.24,30.10,30.04,6,6,5,6,3,,0.00,1,,28
2011-11-12,64,55,46,50,46,43,100,80,52,30.33,30.27,30.24,6,6,6,8,4,,0.00,1,,26
2011-11-13,59,50,42,45,40,36,93,72,42,30.36,30.34,30.33,6,6,6,7,4,,0.00,2,,31
2011-11-14,57,48,39,46,42,37,100,83,63,30.33,30.23,30.15,6,6,6,6,3,,0.00,1,,43
2011-11-15,59,48,37,45,39,36,100,77,48,30.15,30.06,30.01,6,6,6,5,3,,0.00,1,,42
2011-11-16,59,48,37,43,39,36,100,77,42,30.12,30.07,30.04,6,5,5,7,3,,0.00,,,33
2011-11-17,60,50,39,45,39,37,100,77,42,30.24,30.17,30.12,6,6,5,6,3,,0.00,1,,31
2011-11-18,60,48,37,46,39,36,100,77,45,30.27,30.23,30.21,6,6,6,5,3,,0.00,1,,39
2011-11-19,59,47,35,45,40,36,100,81,48,30.24,30.21,30.18,6,5,5,4,3,,0.00,1,,40
2011-11-20,59,48,37,45,40,36,100,80,51,30.21,30.18,30.15,6,5,5,7,3,,0.00,2,,39
2011-11-21,66,52,39,57,45,37,100,85,59,30.18,30.09,30.01,6,6,5,10,3,,0.00,2,,32
2011-11-22,60,55,50,57,53,50,100,88,72,30.01,29.94,29.89,6,6,5,20,8,28,0.00,5,Rain,42
2011-11-23,60,54,48,59,53,48,100,94,77,30.12,30.00,29.95,6,6,5,8,5,,0.00,4,Rain,35
2011-11-24,60,53,46,54,50,46,100,88,72,30.27,30.19,30.12,6,6,6,7,5,,0.00,2,,39
2011-11-25,62,53,44,57,50,45,100,92,72,30.33,30.29,30.24,6,6,4,6,3,,0.00,2,,64
2011-11-26,62,53,44,52,49,45,100,89,63,30.36,30.32,30.30,6,4,2,6,2,,0.00,1,Fog,44
2011-11-27,62,52,42,52,46,41,100,87,59,30.39,30.34,30.30,6,6,5,5,2,,0.00,1,,61
2011-11-28,59,50,41,52,45,39,100,88,63,30.33,30.27,30.24,5,5,4,6,2,,0.00,1,,33
2011-11-29,59,49,39,52,44,39,100,91,72,30.27,30.24,30.21,6,6,5,6,2,,0.00,1,,46
2011-11-30,59,49,39,46,43,39,100,87,63,30.36,30.31,30.27,6,6,6,5,3,,0.00,1,,28